TimeEDT,TemperatureF,Dew PointF,Humidity,Sea Level PressureIn,VisibilityMPH,Wind Direction,Wind SpeedMPH,Gust SpeedMPH,PrecipitationIn,Events,Conditions,WindDirDegrees,DateUTC
12:53 AM,35.1,12.0,39,30.00,10.0,West,9.2,20.7,N/A,,Clear,280,2013-03-20 04:53:00
1:53 AM,34.0,12.0,40,30.01,10.0,West,9.2,-,N/A,,Clear,270,2013-03-20 05:53:00
2:53 AM,33.1,12.9,43,30.01,10.0,Variable,6.9,-,N/A,,Clear,0,2013-03-20 06:53:00
3:53 AM,33.1,12.0,42,30.00,10.0,SW,4.6,-,N/A,,Clear,230,2013-03-20 07:53:00
4:53 AM,32.0,12.9,45,30.00,10.0,SW,4.6,-,N/A,,Clear,220,2013-03-20 08:53:00
5:53 AM,32.0,12.9,45,30.00,10.0,SSW,4.6,-,N/A,,Clear,200,2013-03-20 09:53:00
6:53 AM,32.0,12.9,45,30.01,10.0,SW,5.8,-,N/A,,Clear,220,2013-03-20 10:53:00
7:53 AM,30.9,14.0,50,30.01,10.0,SSW,5.8,-,N/A,,Clear,210,2013-03-20 11:53:00
8:53 AM,34.0,14.0,44,30.01,10.0,SW,6.9,-,N/A,,Clear,230,2013-03-20 12:53:00
9:53 AM,35.1,12.0,39,30.01,10.0,Variable,6.9,-,N/A,,Overcast,0,2013-03-20 13:53:00
10:53 AM,39.0,12.0,33,29.97,10.0,SSW,9.2,-,N/A,,Overcast,210,2013-03-20 14:53:00
11:53 AM,41.0,12.9,32,29.94,10.0,WSW,9.2,20.7,N/A,,Overcast,250,2013-03-20 15:53:00
12:53 PM,42.1,14.0,32,29.91,10.0,SW,9.2,20.7,N/A,,Overcast,230,2013-03-20 16:53:00
1:53 PM,45.0,14.0,29,29.86,10.0,SW,9.2,24.2,N/A,,Overcast,230,2013-03-20 17:53:00
2:53 PM,44.1,14.0,30,29.84,10.0,WSW,8.1,26.5,N/A,,Overcast,250,2013-03-20 18:53:00
3:53 PM,44.1,15.1,31,29.82,10.0,SW,10.4,24.2,N/A,,Mostly Cloudy,230,2013-03-20 19:53:00
4:53 PM,41.0,18.0,40,29.82,10.0,West,10.4,20.7,N/A,,Overcast,280,2013-03-20 20:53:00
5:53 PM,42.1,17.1,37,29.81,10.0,West,5.8,-,N/A,,Overcast,280,2013-03-20 21:53:00
6:53 PM,39.9,17.1,40,29.83,10.0,WNW,6.9,18.4,N/A,,Overcast,300,2013-03-20 22:53:00
7:53 PM,37.9,12.9,36,29.85,10.0,NW,15.0,-,N/A,,Overcast,320,2013-03-20 23:53:00
8:53 PM,36.0,12.0,37,29.88,10.0,NW,12.7,-,N/A,,Overcast,310,2013-03-21 00:53:00
9:53 PM,34.0,12.9,42,29.90,10.0,NNW,13.8,-,N/A,,Overcast,340,2013-03-21 01:53:00
10:53 PM,32.0,12.9,45,29.90,10.0,WNW,11.5,-,N/A,,Overcast,300,2013-03-21 02:53:00
11:53 PM,30.9,12.9,47,29.91,10.0,NW,6.9,-,N/A,,Overcast,310,2013-03-21 03:53:00